KG5TTF Weather Reports


time (UTC)temp
C
wind
direction
speed
KPH
gust
KPH
rain 1hr
cm
rain 24hr
cm
rain mn
cm
humidity
%
barometer
mb
20260507151600 7 306 0.0 0.0 0.18 0.05 0.05 49 1021.6
20260507151057 7 17 0.0 0.0 0.13 0.03 0.03 49 1021.8
20260507150554 7 9 0.0 0.0 0.13 0.03 0.03 50 1021.8
20260507150051 7 35 0.0 0.0 0.00 0.00 0.00 50 1021.9
20260507145546 7 182 0.0 1.6 0.00 0.00 0.00 49 1021.8
20260507145044 6 27 0.0 0.0 0.00 0.00 0.00 51 1021.5
20260507144540 6 173 0.0 1.6 0.00 0.00 0.00 51 1021.8
20260507144038 6 285 0.0 0.0 0.00 0.00 0.00 51 1021.8
20260507143535 5 346 0.0 0.0 0.00 0.00 0.00 50 1021.9
20260507143032 5 305 0.0 0.0 0.00 0.00 0.00 50 1021.6
20260507142527 5 299 0.0 0.0 0.00 0.00 0.00 50 1021.6
20260507142025 5 268 0.0 0.0 0.00 0.00 0.00 48 1021.6
20260507141520 5 248 1.6 4.8 0.00 0.00 0.00 49 1021.9
20260507141017 5 270 0.0 0.0 0.00 0.00 0.00 48 1021.8
20260507140514 5 281 0.0 0.0 0.00 0.00 0.00 49 1021.6
20260507140006 5 4 0.0 0.0 0.00 0.00 0.00 48 1022.0
20260507135503 4 287 0.0 0.0 0.00 0.00 0.00 49 1021.8
20260507134959 4 297 0.0 0.0 0.00 0.00 0.00 49 1021.8
20260507134456 3 271 0.0 0.0 0.00 0.00 0.00 51 1021.6
20260507133952 3 301 0.0 0.0 0.00 0.00 0.00 50 1021.6
20260507133448 3 306 0.0 0.0 0.00 0.00 0.00 50 1021.5
20260507132947 3 344 0.0 0.0 0.00 0.00 0.00 50 1021.5
20260507132442 3 338 0.0 0.0 0.00 0.00 0.00 51 1021.6
20260507131939 3 310 0.0 0.0 0.00 0.00 0.00 51 1021.5
20260507131436 3 0 0.0 0.0 0.00 0.00 0.00 51 1021.5
20260507130933 3 301 0.0 0.0 0.00 0.00 0.00 50 1021.4
20260507130430 2 332 0.0 0.0 0.00 0.00 0.00 50 1021.4
20260507125929 2 327 0.0 0.0 0.00 0.00 0.00 50 1021.5
20260507125426 2 314 0.0 0.0 0.00 0.00 0.00 51 1021.4
20260507124924 2 295 0.0 0.0 0.00 0.00 0.00 51 1021.3
20260507124419 2 302 0.0 0.0 0.00 0.00 0.00 52 1021.3
20260507123918 2 347 0.0 0.0 0.00 0.00 0.00 53 1021.1
20260507123415 2 341 0.0 0.0 0.00 0.00 0.00 50 1021.0
20260507122912 2 355 0.0 0.0 0.00 0.00 0.00 50 1020.9
20260507122407 2 290 0.0 0.0 0.00 0.00 0.00 51 1021.1
20260507121903 2 7 0.0 0.0 0.00 0.00 0.00 51 1020.9
20260507121358 2 281 0.0 0.0 0.00 0.00 0.00 52 1021.0
20260507120855 1 311 0.0 0.0 0.00 0.00 0.00 52 1020.8
20260507120352 1 298 0.0 0.0 0.00 0.00 0.00 52 1020.8
20260507115848 1 358 0.0 0.0 0.00 0.00 0.00 52 1020.9
20260507115344 1 200 0.0 0.0 0.00 0.00 0.00 52 1020.9
20260507114839 1 309 0.0 0.0 0.00 0.00 0.00 52 1020.8
20260507114337 1 335 0.0 0.0 0.00 0.00 0.00 52 1020.8
20260507113834 1 299 0.0 0.0 0.00 0.00 0.00 51 1020.9
20260507113331 1 332 0.0 0.0 0.00 0.00 0.00 52 1020.7
20260507112829 1 325 0.0 0.0 0.00 0.00 0.00 51 1020.8
20260507112325 1 334 0.0 0.0 0.00 0.00 0.00 51 1021.0
20260507111824 2 325 0.0 0.0 0.00 0.00 0.00 51 1020.9
20260507111315 2 316 0.0 0.0 0.00 0.00 0.00 48 1020.9
20260507110811 2 297 0.0 0.0 0.00 0.00 0.00 50 1020.8
20260507110307 1 309 0.0 0.0 0.00 0.00 0.00 52 1020.9
20260507105804 1 299 0.0 0.0 0.00 0.00 0.00 54 1020.8
20260507105300 1 305 0.0 0.0 0.00 0.00 0.00 53 1020.9
20260507104757 1 304 0.0 0.0 0.00 0.00 0.00 53 1021.0
20260507104253 1 336 0.0 0.0 0.00 0.00 0.00 52 1021.0
20260507103749 1 346 0.0 0.0 0.00 0.00 0.00 52 1021.0
20260507103240 1 326 0.0 0.0 0.00 0.00 0.00 53 1020.8
20260507102736 1 315 0.0 0.0 0.00 0.00 0.00 54 1021.1
20260507102233 1 322 0.0 0.0 0.00 0.00 0.00 55 1020.9
20260507101729 1 314 0.0 0.0 0.00 0.00 0.00 56 1021.0
20260507101225 1 339 0.0 0.0 0.00 0.00 0.00 57 1021.3
20260507100722 1 157 0.0 0.0 0.00 0.00 0.00 58 1021.1
20260507100220 1 308 0.0 1.6 0.00 0.00 0.00 58 1021.0
20260507095718 1 300 0.0 0.0 0.00 0.00 0.00 59 1021.4
20260507095214 1 36 0.0 0.0 0.00 0.00 0.00 58 1021.4
20260507094711 1 323 0.0 0.0 0.00 0.00 0.00 58 1021.0
20260507094208 1 312 0.0 0.0 0.00 0.00 0.00 58 1021.4
20260507093705 1 1 0.0 0.0 0.00 0.00 0.00 59 1021.1
20260507093204 0 8 0.0 0.0 0.00 0.00 0.00 60 1021.4
20260507092701 1 320 1.6 4.8 0.00 0.00 0.00 60 1020.9
20260507092157 1 133 0.0 0.0 0.00 0.00 0.00 60 1021.3
20260507091654 1 298 0.0 0.0 0.00 0.00 0.00 59 1021.3
20260507091151 0 284 0.0 0.0 0.00 0.00 0.00 60 1021.3
20260507090646 0 311 0.0 0.0 0.00 0.00 0.00 62 1021.0
20260507090143 0 334 0.0 0.0 0.00 0.00 0.00 63 1021.1
20260507085640 0 303 0.0 0.0 0.00 0.00 0.00 64 1021.3
20260507085136 0 294 0.0 0.0 0.00 0.00 0.00 65 1021.3
20260507084633 0 346 0.0 0.0 0.00 0.00 0.00 65 1021.4
20260507084130 0 124 0.0 0.0 0.00 0.00 0.00 66 1021.4
20260507083626 0 319 0.0 0.0 0.00 0.00 0.00 67 1021.4
20260507083123 0 285 0.0 0.0 0.00 0.00 0.00 66 1021.3
20260507082619 1 337 0.0 0.0 0.00 0.00 0.00 63 1021.3
20260507082116 1 306 0.0 0.0 0.00 0.00 0.00 62 1021.3
20260507081612 1 327 0.0 0.0 0.00 0.00 0.00 63 1021.3
20260507081109 0 293 0.0 1.6 0.00 0.00 0.00 65 1021.5
20260507080605 0 309 0.0 0.0 0.00 0.00 0.00 68 1021.4
20260507075556 0 327 1.6 4.8 0.00 0.00 0.00 72 1021.6
20260507075053 0 343 0.0 0.0 0.00 0.00 0.00 73 1021.9
20260507074550 0 28 0.0 0.0 0.00 0.00 0.00 74 1021.8
20260507074049 0 109 0.0 0.0 0.00 0.00 0.00 74 1021.8
20260507073544 0 270 0.0 0.0 0.00 0.00 0.00 75 1021.9
20260507073041 0 31 0.0 0.0 0.00 0.00 0.00 75 1022.0
20260507072539 0 151 0.0 0.0 0.00 0.00 0.00 76 1022.1
20260507072036 0 87 0.0 0.0 0.00 0.00 0.00 78 1021.9
20260507071533 0 204 0.0 0.0 0.00 0.00 0.00 78 1021.9
20260507071029 0 106 0.0 0.0 0.00 0.00 0.00 79 1021.9
20260507070527 0 4 0.0 0.0 0.00 0.00 0.00 80 1022.1
20260507070024 0 147 0.0 0.0 0.00 0.00 0.00 81 1022.0
20260507065520 0 98 0.0 0.0 0.00 0.00 0.00 81 1022.1
20260507065017 0 336 0.0 0.0 0.00 0.00 0.00 82 1021.9
20260507064515 0 56 0.0 0.0 0.00 0.00 0.00 82 1022.0
20260507064013 0 95 0.0 0.0 0.00 0.00 0.00 83 1022.0
20260507063510 0 47 0.0 0.0 0.00 0.00 0.00 83 1022.0
20260507063008 0 348 0.0 0.0 0.00 0.00 0.00 84 1022.0
20260507062504 -1 193 0.0 0.0 0.00 0.00 0.00 85 1021.9
20260507062001 -1 50 0.0 0.0 0.00 0.00 0.00 86 1021.9
20260507061459 -1 130 0.0 0.0 0.00 0.00 0.00 87 1021.9
20260507060957 -1 145 0.0 0.0 0.00 0.00 0.00 87 1022.0
20260507060454 -1 197 0.0 0.0 0.00 0.00 0.00 87 1022.0
20260507055950 -1 324 0.0 0.0 0.00 0.81 0.81 87 1022.1
20260507055446 -1 61 0.0 0.0 0.00 0.81 0.81 87 1022.1
20260507054943 -1 302 0.0 0.0 0.00 0.81 0.81 87 1022.1
20260507054439 -1 78 0.0 0.0 0.00 0.81 0.81 87 1022.1
20260507053936 -1 183 0.0 0.0 0.00 0.81 0.81 87 1022.1
20260507053434 -1 116 0.0 0.0 0.00 0.81 0.81 87 1021.9
20260507052932 -1 146 0.0 0.0 0.00 0.81 0.81 88 1022.2
20260507052429 -1 81 0.0 0.0 0.00 0.81 0.81 89 1022.0
20260507051926 -1 22 0.0 0.0 0.00 0.81 0.81 88 1022.0
20260507051424 -1 355 0.0 0.0 0.00 0.81 0.81 88 1022.0
20260507050921 -1 318 0.0 0.0 0.00 0.81 0.81 89 1022.0
20260507050417 -1 333 0.0 0.0 0.00 0.81 0.81 88 1021.9
20260507045914 -1 341 0.0 0.0 0.00 0.81 0.81 88 1022.0
20260507045410 -1 127 0.0 0.0 0.00 0.81 0.81 88 1022.0
20260507044903 -1 25 0.0 0.0 0.00 0.81 0.81 88 1022.0
20260507044359 0 355 0.0 0.0 0.00 0.81 0.81 87 1022.2
20260507043855 0 346 0.0 0.0 0.00 0.81 0.81 87 1022.1
20260507043352 0 6 0.0 0.0 0.00 0.81 0.81 87 1022.0
20260507042848 0 56 0.0 0.0 0.00 0.81 0.81 87 1022.0
20260507042344 0 74 0.0 0.0 0.00 0.81 0.81 86 1022.0
20260507041841 0 147 0.0 0.0 0.00 0.81 0.81 86 1022.1
20260507041338 0 56 0.0 0.0 0.00 0.81 0.81 86 1021.8
20260507040835 0 53 0.0 0.0 0.00 0.81 0.81 86 1022.0
20260507040331 0 347 0.0 0.0 0.00 0.81 0.81 86 1021.6
20260507035827 0 66 0.0 0.0 0.00 0.81 0.81 86 1021.6
20260507035322 0 313 0.0 0.0 0.00 0.81 0.81 86 1022.0
20260507034821 0 121 0.0 0.0 0.00 0.81 0.81 86 1021.9
20260507034317 0 309 0.0 1.6 0.00 0.81 0.81 86 1022.0
20260507033815 0 292 0.0 0.0 0.00 0.81 0.81 85 1021.8
20260507033313 0 153 0.0 0.0 0.00 0.81 0.81 85 1021.8
20260507032809 0 157 0.0 0.0 0.00 0.81 0.81 85 1021.9
20260507032306 0 281 0.0 0.0 0.00 0.81 0.81 85 1021.9
20260507031802 0 202 0.0 0.0 0.00 0.81 0.81 85 1022.0
20260507031259 0 217 0.0 0.0 0.00 0.81 0.81 84 1021.6
20260507030755 0 195 0.0 0.0 0.00 0.81 0.81 84 1021.9
20260507030253 0 193 0.0 0.0 0.00 0.81 0.81 84 1021.8
20260507025750 0 249 0.0 0.0 0.00 0.81 0.81 84 1021.5
20260507025247 0 176 0.0 0.0 0.00 0.81 0.81 84 1021.5
20260507024745 0 274 0.0 0.0 0.00 0.81 0.81 84 1021.5
20260507024242 0 188 0.0 0.0 0.00 0.81 0.81 84 1021.6
20260507023738 0 149 0.0 0.0 0.00 0.81 0.81 85 1021.5
20260507023235 0 184 0.0 0.0 0.18 0.81 0.81 84 1021.8
20260507022732 0 280 0.0 0.0 0.18 0.81 0.81 85 1021.5
20260507022228 0 173 0.0 0.0 0.00 0.79 0.79 85 1021.4
20260507021724 0 245 0.0 0.0 0.00 0.79 0.79 85 1021.5
20260507021220 0 185 0.0 0.0 0.00 0.79 0.79 85 1021.8
20260507020719 0 190 0.0 0.0 0.00 0.79 0.79 84 1021.4
20260507020214 0 178 0.0 0.0 0.00 0.79 0.79 84 1021.6
20260507015712 0 195 0.0 0.0 0.00 0.79 0.79 84 1021.4
20260507015209 0 190 0.0 0.0 0.00 0.79 0.79 83 1021.4
20260507014706 0 194 0.0 0.0 0.00 0.79 0.79 82 1021.4
20260507014202 0 160 0.0 0.0 0.00 0.79 0.79 81 1021.5
20260507013659 0 193 0.0 0.0 0.00 0.79 0.79 79 1021.4
20260507013156 1 176 0.0 0.0 0.00 0.79 0.79 77 1021.4
20260507012654 1 200 0.0 0.0 0.00 0.79 0.79 77 1021.6
20260507012149 1 206 0.0 0.0 0.00 0.79 0.79 76 1021.5
20260507011647 1 190 0.0 0.0 0.00 0.79 0.79 74 1021.5
20260507011143 1 181 0.0 0.0 0.13 0.79 0.79 72 1021.6
20260507010638 1 153 0.0 0.0 0.13 0.79 0.79 74 1021.9
20260507010134 2 208 0.0 0.0 0.00 0.76 0.76 71 1021.6
20260507005631 2 231 0.0 0.0 0.00 0.76 0.76 71 1021.5
20260507005128 2 214 0.0 0.0 0.00 0.76 0.76 71 1021.8
20260507004625 2 153 0.0 0.0 0.18 0.76 0.76 72 1021.6
20260507004122 2 233 0.0 0.0 0.18 0.76 0.76 73 1021.6
20260507003618 1 199 0.0 0.0 0.00 0.74 0.74 72 1021.6
20260507003112 1 224 0.0 0.0 0.00 0.74 0.74 72 1021.6
20260507002610 2 205 0.0 0.0 0.13 0.74 0.74 70 1021.8
20260507002105 1 266 0.0 0.0 0.13 0.74 0.74 72 1021.5
20260507001602 2 193 0.0 0.0 0.00 0.71 0.71 71 1021.6
20260507001100 2 173 0.0 0.0 0.18 0.71 0.71 74 1021.8
20260507000556 2 202 0.0 0.0 0.18 0.71 0.71 72 1021.8
20260507000051 2 184 0.0 0.0 0.00 0.69 0.69 72 1021.6
20260506235549 1 144 0.0 0.0 0.13 0.69 0.69 75 1021.4
20260506235044 1 226 0.0 0.0 0.13 0.69 0.69 75 1021.5
20260506234542 1 211 0.0 0.0 0.18 0.66 0.66 73 1021.6
20260506234039 2 181 0.0 0.0 0.18 0.66 0.66 73 1021.8
20260506233536 2 171 0.0 0.0 0.13 0.64 0.64 71 1021.8
20260506233032 2 209 0.0 0.0 0.13 0.64 0.64 71 1021.6
20260506232529 2 90 0.0 0.0 0.18 0.61 0.61 75 1021.6
20260506232024 1 202 0.0 0.0 0.18 0.61 0.61 73 1021.8
20260506231522 2 190 0.0 0.0 0.13 0.58 0.58 71 1022.0
20260506231020 2 112 0.0 0.0 0.13 0.58 0.58 71 1021.6
20260506230516 2 197 0.0 0.0 0.18 0.56 0.56 70 1021.9
20260506230014 2 163 0.0 0.0 0.36 0.56 0.56 70 1021.8
20260506225510 2 203 0.0 0.0 0.30 0.53 0.53 68 1022.0
20260506225007 2 316 0.0 0.0 0.13 0.51 0.51 71 1022.1
20260506224503 1 112 0.0 0.0 0.18 0.48 0.48 73 1022.0
20260506224000 1 334 0.0 0.0 0.30 0.48 0.48 75 1022.0
20260506223456 2 332 0.0 0.0 0.13 0.46 0.46 77 1022.1
20260506222953 1 135 0.0 0.0 0.30 0.46 0.46 77 1021.9
20260506222450 0 197 0.0 0.0 0.18 0.43 0.43 79 1022.0
20260506221946 1 151 0.0 0.0 0.13 0.41 0.41 77 1022.2
20260506221443 0 150 0.0 0.0 0.30 0.41 0.41 79 1022.1
20260506220936 1 201 0.0 0.0 0.30 0.38 0.38 77 1022.2
20260506220431 1 283 0.0 0.0 0.30 0.36 0.36 79 1022.1
20260506215928 1 294 0.0 0.0 0.30 0.33 0.33 78 1022.2
20260506215424 1 314 0.0 0.0 0.30 0.30 0.30 79 1022.2
20260506214920 1 344 0.0 0.0 0.18 0.28 0.28 78 1022.2
20260506214417 2 284 0.0 0.0 0.13 0.25 0.25 75 1022.4
20260506213915 1 0 0.0 0.0 0.30 0.25 0.25 79 1022.5
20260506213413 1 348 0.0 0.0 0.36 0.23 0.23 79 1022.5
20260506212910 1 346 0.0 0.0 0.30 0.20 0.20 79 1022.4
20260506212406 1 305 0.0 0.0 0.30 0.18 0.18 78 1022.6
20260506211900 1 17 0.0 0.0 0.61 0.15 0.15 78 1022.7
20260506211357 1 16 0.0 0.0 0.43 0.13 0.13 78 1022.6
20260506210854 1 297 0.0 0.0 0.00 0.05 0.05 79 1022.6
20260506210351 1 44 0.0 0.0 0.18 0.05 0.05 80 1022.7
20260506205848 1 43 0.0 0.0 0.18 0.05 0.05 79 1022.5
20260506205344 2 40 0.0 0.0 0.00 0.03 0.03 78 1022.5
20260506204840 1 40 0.0 0.0 0.00 0.03 0.03 79 1022.6
20260506204338 2 40 0.0 0.0 0.00 0.03 0.03 76 1022.7
20260506203836 3 40 0.0 0.0 0.00 0.03 0.03 71 1022.7
20260506203333 3 39 0.0 0.0 0.00 0.03 0.03 71 1023.0
20260506202829 2 39 0.0 0.0 0.13 0.03 0.03 74 1023.0
20260506202327 2 39 0.0 0.0 0.13 0.03 0.03 75 1023.3
20260506201823 1 39 0.0 0.0 0.00 0.00 0.00 77 1022.9
20260506201321 2 22 0.0 0.0 0.00 0.00 0.00 76 1023.0
20260506200817 1 12 0.0 0.0 0.00 0.00 0.00 77 1022.9
20260506200313 1 50 0.0 0.0 0.00 0.00 0.00 80 1022.9
20260506195809 0 50 0.0 0.0 0.00 0.00 0.00 84 1022.7
20260506195307 1 54 0.0 0.0 0.00 0.00 0.00 82 1023.1
20260506194804 0 58 0.0 0.0 0.00 0.00 0.00 84 1022.9
20260506194300 0 59 0.0 0.0 0.00 0.00 0.00 86 1022.9
20260506193758 0 61 0.0 0.0 0.00 0.00 0.00 85 1022.9
20260506193254 0 58 0.0 0.0 0.00 0.00 0.00 86 1023.0
20260506192750 0 61 0.0 0.0 0.00 0.00 0.00 87 1023.0
20260506192248 0 59 0.0 0.0 0.00 0.00 0.00 86 1022.7
20260506191744 0 65 0.0 0.0 0.00 0.00 0.00 88 1023.0
20260506191241 0 65 0.0 0.0 0.00 0.00 0.00 89 1023.0
20260506190738 0 65 0.0 0.0 0.00 0.00 0.00 88 1023.0
20260506190234 0 63 0.0 0.0 0.00 0.00 0.00 89 1023.2
20260506185732 0 63 0.0 0.0 0.00 0.00 0.00 90 1023.1
20260506185228 0 61 0.0 0.0 0.00 0.00 0.00 91 1023.2
20260506184725 0 60 0.0 0.0 0.00 0.00 0.00 90 1023.2
20260506184223 0 59 0.0 0.0 0.00 0.00 0.00 90 1023.2
20260506183719 0 59 0.0 0.0 0.00 0.00 0.00 92 1023.2
20260506183215 0 57 0.0 0.0 0.00 0.00 0.00 91 1023.2
20260506182712 0 55 0.0 0.0 0.00 0.00 0.00 91 1023.2
20260506182209 0 52 0.0 0.0 0.00 0.00 0.00 91 1023.1
20260506181707 0 48 0.0 0.0 0.00 0.00 0.00 92 1023.0
20260506181205 0 47 0.0 0.0 0.00 0.00 0.00 92 1022.9
20260506180702 -1 45 0.0 0.0 0.00 0.00 0.00 91 1023.0
20260506180157 0 44 0.0 0.0 0.00 0.00 0.00 89 1023.0
20260506175654 0 41 0.0 0.0 0.00 0.00 0.00 90 1023.0
20260506175150 0 37 0.0 0.0 0.00 0.00 0.00 90 1022.9
20260506174648 0 36 0.0 0.0 0.00 0.00 0.00 91 1022.9
20260506174145 0 36 0.0 0.0 0.00 0.00 0.00 90 1022.9
20260506173644 0 30 0.0 0.0 0.00 0.00 0.00 90 1023.0
20260506173140 0 35 0.0 0.0 0.00 0.00 0.00 91 1023.1
20260506172637 1 35 0.0 0.0 0.00 0.00 0.00 91 1023.0
20260506172133 0 35 0.0 0.0 0.00 0.00 0.00 91 1022.9
20260506171625 0 33 0.0 0.0 0.00 0.00 0.00 92 1022.6
20260506171122 0 34 0.0 0.0 0.00 0.00 0.00 93 1022.6
20260506170619 0 35 0.0 0.0 0.00 0.00 0.00 94 1022.2
20260506170111 0 36 0.0 0.0 0.00 0.00 0.00 94 1022.2
20260506165609 0 36 0.0 0.0 0.00 0.00 0.00 95 1022.4
20260506165059 0 36 0.0 0.0 0.00 0.00 0.00 95 1022.1
20260506164557 0 37 0.0 0.0 0.00 0.00 0.00 96 1022.2
20260506164054 0 38 0.0 0.0 0.00 0.00 0.00 96 1022.4
20260506163549 0 38 0.0 0.0 0.00 0.00 0.00 97 1021.9
20260506163045 0 38 0.0 0.0 0.00 0.00 0.00 97 1022.0
20260506162541 0 38 0.0 0.0 0.00 0.00 0.00 97 1022.0
20260506162034 0 38 0.0 0.0 0.00 0.00 0.00 97 1022.0
20260506161531 0 38 0.0 0.0 0.00 0.00 0.00 98 1022.0
20260506161027 0 38 0.0 0.0 0.00 0.00 0.00 98 1022.0
20260506160525 0 38 0.0 0.0 0.00 0.00 0.00 98 1022.1
20260506160022 0 38 0.0 0.0 0.00 0.00 0.00 98 1021.9
20260506155521 0 38 0.0 0.0 0.00 0.00 0.00 98 1022.0
20260506153652 0 38 0.0 0.0 0.00 0.00 0.00 99 1021.9
20260506153149 -1 38 0.0 0.0 0.00 0.00 0.00 99 1022.0
20260506152646 -1 38 0.0 0.0 0.00 0.00 0.00 99 1021.8
20260506152144 -1 38 0.0 0.0 0.00 0.00 0.00 99 1021.6